SL-16 DEB, 22353

Orbit data source: Space-Track

SL-16 DEB, 22353 is space debris in LEO originally from a launch on Fri, 25 Dec 1992 UTC launched from the Tyuratam Missile And Space Complex (TTMTR). Debris objects in space refer to the collection of defunct objects orbiting the Earth. Examples of debris include non-operational satellites, rocket bodies, and fragments generated from explosions, collisions, or faulty payload assembly.

Loading next visibility...
Identifier
22353, 1992-093AS
Orbit
LEO
Country
Flag of CISCIS
Related business
Manufacturer
Unknown
Mission
Spacecraft
Bus & Motor
Unknown
Mass
Unknown
Launch date (UTC)
1992-12-25 (33 years ago)
Launch vehicle
Unknown
Launch site
Tyuratam Missile And Space Complex (TTMTR)
Object type
Payload
Rocket body
Debris
Shape & HBR
Unknown shape, 0.2 m
Radar Cross Section
Small (<0.1 m²)

Expand to show TLE details & history
Last TLE update: 5 hours ago

TLE from 5 hours ago
0 SL-16 DEB
1 22353U 92093AS  26037.29716339  .00001203  00000-0  63437-3 0  9998
2 22353  70.9664 147.9369 0107938  74.7422 316.7154 14.12968520693319
Epoch: 2026-02-06T07:07Z
TLE epoch observation values (Epoch: 2026-02-06T07:07:54.916Z)
Latitude
28.82212°
Longitude
-84.59509°
Altitude
795.882 km
Speed
7.488 km/s
True Right ascension
10h 35m 16s
True Declination
28° 40' 40"
Sunlit
Object was in full shadow at epoch
Visualization orbit readout
Latitude
Unknown
Longitude
Unknown
Altitude
Unknown
Speed
Unknown
Apparent Right ascension
Unknown
Apparent Declination
Unknown
Sunlit
N/A
Visualization observer readout
Local Sidereal Time
13:55:07
Azimuth
Unknown
Elevation
Unknown
Doppler factor
Unknown
Orbital elements
Apogee altitude
925.149 km
Perigee altitude
769.173 km
Semi-major axis
7,225.298 km
Eccentricity
0.01079
Inclination
70.9664°
RAAN
147.9369°
Arg. of periapsis
74.7422°
True anomaly
315.85899°
Mean anomaly
316.7154°
Eccentric anomaly
316.28804°
Mean motion
3.53394 °/min
Orbital period
101.87 mins
BSTAR
0.00063437
Loading maneuver chart data...
Computing Atmospheric mass density...
Loading historical data...
Loading historical data...
Loading historical data...
Loading historical data...
Loading historical data...
Loading historical data...
Loading historical data...

Documentation

Showing up to 5 results
|